weather.gov     
National Weather Service

Terminal Aerodrome Forecast
NWS Homepage
This page is being discontinued on March 12, 2014.
The same data is available at this site. Please update your bookmarks.
Thank you, and we apologize for the inconvenience.
Please send an email to SR-SRH.Webmaster@noaa.gov with any concerns.


Current Version
Previous Version:    01  02  03  04  05  06  07  08  09  10  11  12  13  14  15  16  17  18  19  20  21  22  23  24  25  
[Printable]
136
FTUS44 KLIX 291100
TAFHDC
TAF
KHDC 291138Z 2912/3012 VRB03KT P6SM BKN090 BKN250
     FM291500 10006KT P6SM VCSH BKN050
      TEMPO 2920/2924 VRB10G20KT 3SM TSRA SCT030CB BKN040
     FM300600 VRB03KT P6SM OVC025
      TEMPO 3010/3012 5SM BR BKN010=


U.S. Dept. of Commerce
NOAA National Weather Service
1325 East West Highway
Silver Spring, MD 20910
E-mail: w-nws.webmaster@noaa.gov
Page last modified: May 16, 2007
NATIONAL WEATHER SERVICE: for Safety, for Work, for Fun - FOR LIFE